Location: Heidgraben
(53.7081°N, 9.6576°E)
Time: 00:24:06
(UTC+00:00)

Envisat - Visible Passes

Search period start: 26 September 2020 00:00
Search period end: 06 October 2020 00:00
Orbit: 764 x 766 km, 98.1° (Epoch: 25 September)

Date Brightness Start Highest point End Pass type
(mag) Time Alt. Az. Time Alt. Az. Time Alt. Az.
26 Sep 5.7 04:31:31 10° NE 04:35:40 25° E 04:39:47 10° SE visible
27 Sep 6.4 03:56:03 10° NE 03:58:21 13° E 04:00:38 10° ESE visible
28 Sep 6.2 17:59:07 10° SW 18:02:18 16° W 18:05:29 10° NW visible
29 Sep 6.0 04:20:24 10° NE 04:24:11 20° E 04:27:55 10° SE visible
30 Sep 6.7 03:45:58 10° ENE 03:46:47 10° E 03:47:37 10° E visible
30 Sep 6.8 18:28:06 10° W 18:28:10 10° W 18:28:15 10° W visible
01 Oct 5.2 04:45:21 10° NNE 04:49:54 31° E 04:54:24 10° SSE visible
01 Oct 6.1 17:47:05 10° SW 17:50:47 20° W 17:54:29 10° NW visible
02 Oct 6.2 04:09:23 10° NE 04:12:40 17° E 04:15:55 10° SE visible
03 Oct 6.5 18:14:28 10° WSW 18:16:37 13° W 18:18:45 10° WNW visible
04 Oct 5.6 04:34:09 10° NE 04:38:25 26° E 04:42:40 10° SSE visible
04 Oct 5.8 17:35:12 10° SW 17:39:17 24° W 17:43:23 10° NW visible
05 Oct 6.3 03:58:31 10° NE 04:01:07 14° E 04:03:44 10° ESE visible
